Date,TemperatureHighF,TemperatureAvgF,TemperatureLowF,DewpointHighF,DewpointAvgF,DewpointLowF,HumidityHigh,HumidityAvg,HumidityLow,PressureMaxIn,PressureMinIn,WindSpeedMaxMPH,WindSpeedAvgMPH,GustSpeedMaxMPH,PrecipitationSumIn
2013-8-1,86,76,66,70,67,62,94,76,47,30.08,29.99,5,1,13,0.01
2013-8-2,86,74,61,70,65,59,94,76,46,30.07,29.98,4,0,9,0.00
2013-8-3,85,75,69,75,71,66,95,87,68,30.08,29.96,5,0,11,0.30
2013-8-4,82,74,67,70,64,59,93,72,49,30.17,30.08,4,1,10,0.11
2013-8-5,80,70,62,67,64,59,92,82,55,30.12,29.97,4,0,8,0.19
2013-8-6,82,74,70,75,71,67,95,89,78,29.99,29.91,2,0,7,0.11
2013-8-7,85,76,70,75,72,68,96,88,68,29.98,29.90,4,0,7,0.13
2013-8-8,84,76,70,77,73,68,97,90,75,29.98,29.91,2,0,7,0.59
2013-8-9,86,76,71,76,73,69,97,91,73,30.06,29.94,8,0,18,2.38
2013-8-10,83,76,72,74,72,70,96,88,71,30.14,30.04,2,0,7,0.02
2013-8-11,88,79,70,74,71,68,96,79,58,30.14,30.07,4,0,8,0.01
2013-8-12,86,76,70,77,72,68,96,88,74,30.09,29.92,7,1,12,1.23
2013-8-13,84,74,66,72,67,-100,96,81,58,30.08,29.93,5,1,13,0.34
2013-8-14,75,65,56,61,53,-100,88,70,47,30.17,30.08,7,2,13,0.00
2013-8-15,77,60,55,60,44,-100,88,69,47,30.16,30.07,6,1,11,0.00
2013-8-16,78,67,59,65,57,-100,88,76,58,30.13,30.08,5,1,11,0.00
2013-8-17,80,69,65,70,63,-100,94,83,66,30.18,30.08,5,1,11,0.60
2013-8-18,78,70,63,71,66,61,96,89,72,30.18,30.09,3,0,8,0.51
2013-8-19,84,69,62,71,56,-100,96,82,58,30.15,30.05,4,0,9,0.01
2013-8-20,89,75,66,73,67,-100,95,81,55,30.14,30.05,4,0,8,0.01
2013-8-21,90,77,66,75,70,64,95,81,55,30.17,30.08,3,0,8,0.00
2013-8-22,91,79,68,75,71,66,96,78,51,30.15,30.04,5,0,9,0.00
2013-8-23,89,78,70,77,72,68,94,84,63,30.10,30.03,4,0,14,0.02
2013-8-24,88,77,69,72,67,-100,96,76,51,30.22,30.10,5,1,11,0.01
2013-8-25,89,77,67,75,70,63,92,79,61,30.30,30.22,4,0,8,0.00
2013-8-26,89,78,68,75,71,66,95,81,60,30.28,30.14,4,0,9,0.00
2013-8-27,88,75,67,75,70,65,94,84,64,30.15,30.07,3,0,10,0.00
2013-8-28,91,86,73,75,72,70,91,66,51,30.06,30.01,3,1,12,0.00
2013-8-29,94,81,69,77,72,67,94,77,50,30.05,29.96,6,1,12,0.00
2013-8-30,95,82,71,77,74,69,95,78,51,30.00,29.89,3,0,10,0.00
2013-8-31,96,83,73,79,73,-100,94,76,56,29.91,29.79,2,0,9,0.00